Donnes mto: Actuelle mardi, 09.07.2019 02:00
Date Horaire Temp. E. Hum. E. P.atmo. Vent P. de rose Temp au vent Rafales
09.07.2019 02:00 14.5 C 79 % 900.1 hPa 0.2 km/h (0 Bft) 10.9 C 14.5 C 0.0 km/h (0 Bft)
09.07.2019 01:55 14.4 C 79 % 900.1 hPa 0.5 km/h (0 Bft) 10.8 C 14.4 C 0.0 km/h (0 Bft)
09.07.2019 01:50 14.5 C 79 % 900.4 hPa 0.6 km/h (0 Bft) 10.9 C 14.5 C 0.0 km/h (0 Bft)
09.07.2019 01:45 14.7 C 80 % 900.4 hPa 0.3 km/h (0 Bft) 11.3 C 14.7 C 4.5 km/h (1 Bft)
09.07.2019 01:40 14.6 C 80 % 900.4 hPa 0.2 km/h (0 Bft) 11.2 C 14.6 C 3.9 km/h (1 Bft)
09.07.2019 01:35 14.7 C 79 % 900.4 hPa 0.2 km/h (0 Bft) 11.1 C 14.7 C 2.3 km/h (1 Bft)
09.07.2019 01:30 14.8 C 79 % 900.6 hPa 0.2 km/h (0 Bft) 11.2 C 14.8 C 0.0 km/h (0 Bft)
09.07.2019 01:25 14.8 C 79 % 900.6 hPa 0.0 km/h (0 Bft) 11.2 C 14.8 C 0.0 km/h (0 Bft)
09.07.2019 01:20 14.8 C 79 % 900.6 hPa 0.0 km/h (0 Bft) 11.2 C 14.8 C 0.0 km/h (0 Bft)
09.07.2019 01:15 14.9 C 79 % 900.6 hPa 0.0 km/h (0 Bft) 11.3 C 14.9 C 0.0 km/h (0 Bft)
09.07.2019 01:10 15.0 C 79 % 900.6 hPa 0.0 km/h (0 Bft) 11.4 C 15.0 C 0.0 km/h (0 Bft)
09.07.2019 01:05 15.1 C 79 % 900.6 hPa 0.0 km/h (0 Bft) 11.5 C 15.1 C 0.0 km/h (0 Bft)
09.07.2019 01:00 15.1 C 79 % 900.6 hPa 0.0 km/h (0 Bft) 11.5 C 15.1 C 0.0 km/h (0 Bft)
09.07.2019 00:55 15.1 C 79 % 900.6 hPa 0.0 km/h (0 Bft) 11.5 C 15.1 C 0.0 km/h (0 Bft)
09.07.2019 00:50 15.2 C 79 % 900.6 hPa 0.0 km/h (0 Bft) 11.6 C 15.2 C 0.0 km/h (0 Bft)
09.07.2019 00:45 15.2 C 79 % 900.6 hPa 0.0 km/h (0 Bft) 11.6 C 15.2 C 0.0 km/h (0 Bft)
09.07.2019 00:40 15.2 C 79 % 900.6 hPa 0.0 km/h (0 Bft) 11.6 C 15.2 C 0.0 km/h (0 Bft)
09.07.2019 00:35 15.2 C 79 % 900.6 hPa 0.0 km/h (0 Bft) 11.6 C 15.2 C 0.0 km/h (0 Bft)
09.07.2019 00:30 15.2 C 78 % 900.2 hPa 0.0 km/h (0 Bft) 11.4 C 15.2 C 0.0 km/h (0 Bft)
09.07.2019 00:25 15.3 C 78 % 900.2 hPa 0.0 km/h (0 Bft) 11.5 C 15.3 C 0.0 km/h (0 Bft)
09.07.2019 00:20 15.3 C 78 % 900.2 hPa 0.0 km/h (0 Bft) 11.5 C 15.3 C 0.0 km/h (0 Bft)
_ Min-Heure 05:45 19:25 04:55 03:00 05:45 05:45 03:00
Minimum _ 13.5 C 45 % 899.5 hPa 0.0 km/h (0 Bft) 9.7 C 13.5 C 0.0 km/h (0 Bft)
_ Max-Heure 19:25 01:40 09:35 16:35 19:15 19:25 14:20
Maximum _ 27.7 C 80 % 902.1 hPa 7.4 km/h
O-NO (2 Bft)
15.1 C 27.7 C 16.1 km/h
NO (3 Bft)
Moyenne _ 17.7 C 68 % 900.3 hPa 1.8 km/h (1 Bft) 11.6 C 17.7 C 2.4 km/h (1 Bft)